Tracking 35331 objects as of 16-Sep-2026
HD Live streaming from Space Station
objects crossing your sky now

COSMOS 1823 DEB


COSMOS 1823 DEB is no longer on orbit


NORAD ID: 19888
Int'l Code: 1987-020CS
Launch date: February 20, 1987
Source: Commonwealth of Independent States (former USSR) (CIS)
Launch site: PLESETSK MISSILE AND SPACE COMPLEX (PKMTR)
Decay date: 1989-08-02

Note: This is SATELLITE DEBRIS
Your satellite tracking list
Your tracking list is empty




NASA's NSSDC Master Catalog

Two Line Element Set (TLE):
1 19888U 87020 CS 89212.52223692  .00018983 +00000-0 +00000-3 0  9996
2 19888 073.3850 037.1808 0120864 161.1815 199.4403 15.09386973021546
Source of the keplerian elements: AFSPC